Time,TemperatureF,DewpointF,PressureIn,WindDirection,WindDirectionDegrees,WindSpeedMPH,WindSpeedGustMPH,Humidity,HourlyPrecipIn,Conditions,Clouds,dailyrainin,SoftwareType,DateUTC
2013-02-15 00:00:00,15.0,11.0,-100.00,WNW,302,7.0,13.0,83,-99.99,,,-99.99,,2013-02-15 07:00:00,
2013-02-15 00:32:00,15.0,11.0,-100.00,WNW,302,7.0,13.0,83,-99.99,,,-99.99,,2013-02-15 07:32:00,
2013-02-15 00:42:00,15.0,11.0,-100.00,WNW,302,7.0,13.0,83,-99.99,,,-99.99,,2013-02-15 07:42:00,
2013-02-15 00:52:00,15.0,11.0,-100.00,WNW,302,7.0,13.0,83,-99.99,,,-99.99,,2013-02-15 07:52:00,
2013-02-15 02:00:00,14.0,12.0,-100.00,NW,305,5.0,14.0,94,-99.99,,,-99.99,,2013-02-15 09:00:00,
2013-02-15 02:32:00,14.0,12.0,-100.00,NW,305,5.0,14.0,94,-99.99,,,-99.99,,2013-02-15 09:32:00,
2013-02-15 02:42:00,14.0,12.0,-100.00,NW,305,5.0,14.0,94,-99.99,,,-99.99,,2013-02-15 09:42:00,
2013-02-15 02:52:00,14.0,12.0,-100.00,NW,305,5.0,14.0,94,-99.99,,,-99.99,,2013-02-15 09:52:00,
2013-02-15 04:00:00,14.0,12.0,-100.00,NW,308,4.0,9.0,92,-99.99,,,-99.99,,2013-02-15 11:00:00,
2013-02-15 04:32:00,14.0,12.0,-100.00,NW,308,4.0,9.0,92,-99.99,,,-99.99,,2013-02-15 11:32:00,
2013-02-15 04:42:00,14.0,12.0,-100.00,NW,308,4.0,9.0,92,-99.99,,,-99.99,,2013-02-15 11:42:00,
2013-02-15 04:52:00,14.0,12.0,-100.00,NW,308,4.0,9.0,92,-99.99,,,-99.99,,2013-02-15 11:52:00,
2013-02-15 06:00:00,14.0,13.0,-100.00,NW,305,4.0,12.0,95,-99.99,,,-99.99,,2013-02-15 13:00:00,
2013-02-15 06:32:00,14.0,13.0,-100.00,NW,305,4.0,12.0,95,-99.99,,,-99.99,,2013-02-15 13:32:00,
2013-02-15 06:42:00,14.0,13.0,-100.00,NW,305,4.0,12.0,95,-99.99,,,-99.99,,2013-02-15 13:42:00,
2013-02-15 06:52:00,14.0,13.0,-100.00,NW,305,4.0,12.0,95,-99.99,,,-99.99,,2013-02-15 13:52:00,
2013-02-15 08:00:00,14.0,13.0,-100.00,NW,305,4.0,8.0,97,-99.99,,,-99.99,,2013-02-15 15:00:00,
2013-02-15 08:32:00,14.0,13.0,-100.00,NW,305,4.0,8.0,97,-99.99,,,-99.99,,2013-02-15 15:32:00,
2013-02-15 08:42:00,14.0,13.0,-100.00,NW,305,4.0,8.0,97,-99.99,,,-99.99,,2013-02-15 15:42:00,
2013-02-15 08:52:00,14.0,13.0,-100.00,NW,305,4.0,8.0,97,-99.99,,,-99.99,,2013-02-15 15:52:00,
2013-02-15 10:00:00,17.0,16.0,-100.00,NW,317,3.0,9.0,93,-99.99,,,-99.99,,2013-02-15 17:00:00,
2013-02-15 10:32:00,17.0,16.0,-100.00,NW,317,3.0,9.0,93,-99.99,,,-99.99,,2013-02-15 17:32:00,
2013-02-15 10:42:00,17.0,16.0,-100.00,NW,317,3.0,9.0,93,-99.99,,,-99.99,,2013-02-15 17:42:00,
2013-02-15 10:52:00,17.0,16.0,-100.00,NW,317,3.0,9.0,93,-99.99,,,-99.99,,2013-02-15 17:52:00,
2013-02-15 12:00:00,24.0,15.0,-100.00,WNW,296,3.0,7.0,70,-99.99,,,-99.99,,2013-02-15 19:00:00,
2013-02-15 12:32:00,24.0,15.0,-100.00,WNW,296,3.0,7.0,70,-99.99,,,-99.99,,2013-02-15 19:32:00,
2013-02-15 12:42:00,24.0,15.0,-100.00,WNW,296,3.0,7.0,70,-99.99,,,-99.99,,2013-02-15 19:42:00,
2013-02-15 12:52:00,24.0,15.0,-100.00,WNW,296,3.0,7.0,70,-99.99,,,-99.99,,2013-02-15 19:52:00,
2013-02-15 14:00:00,28.0,16.0,-100.00,NW,306,3.0,7.0,59,-99.99,,,-99.99,,2013-02-15 21:00:00,
2013-02-15 14:32:00,28.0,16.0,-100.00,NW,306,3.0,7.0,59,-99.99,,,-99.99,,2013-02-15 21:32:00,
2013-02-15 14:42:00,28.0,16.0,-100.00,NW,306,3.0,7.0,59,-99.99,,,-99.99,,2013-02-15 21:42:00,
2013-02-15 14:52:00,28.0,16.0,-100.00,NW,306,3.0,7.0,59,-99.99,,,-99.99,,2013-02-15 21:52:00,
2013-02-15 16:00:00,27.0,17.0,-100.00,NW,309,4.0,7.0,65,-99.99,,,-99.99,,2013-02-15 23:00:00,
2013-02-15 16:32:00,27.0,17.0,-100.00,NW,309,4.0,7.0,65,-99.99,,,-99.99,,2013-02-15 23:32:00,
2013-02-15 16:42:00,27.0,17.0,-100.00,NW,309,4.0,7.0,65,-99.99,,,-99.99,,2013-02-15 23:42:00,
2013-02-15 16:52:00,27.0,17.0,-100.00,NW,309,4.0,7.0,65,-99.99,,,-99.99,,2013-02-15 23:52:00,
2013-02-15 18:00:00,25.0,7.0,-100.00,NW,312,3.0,6.0,44,-99.99,,,-99.99,,2013-02-16 01:00:00,
2013-02-15 18:32:00,25.0,7.0,-100.00,NW,312,3.0,6.0,44,-99.99,,,-99.99,,2013-02-16 01:32:00,
2013-02-15 18:42:00,25.0,7.0,-100.00,NW,312,3.0,6.0,44,-99.99,,,-99.99,,2013-02-16 01:42:00,
2013-02-15 18:52:00,25.0,7.0,-100.00,NW,312,3.0,6.0,44,-99.99,,,-99.99,,2013-02-16 01:52:00,
2013-02-15 20:00:00,24.0,3.0,-100.00,NW,318,2.0,5.0,40,-99.99,,,-99.99,,2013-02-16 03:00:00,
2013-02-15 20:32:00,24.0,3.0,-100.00,NW,318,2.0,5.0,40,-99.99,,,-99.99,,2013-02-16 03:32:00,
2013-02-15 20:42:00,24.0,3.0,-100.00,NW,318,2.0,5.0,40,-99.99,,,-99.99,,2013-02-16 03:42:00,
2013-02-15 20:52:00,24.0,3.0,-100.00,NW,318,2.0,5.0,40,-99.99,,,-99.99,,2013-02-16 03:52:00,
2013-02-15 22:00:00,25.0,1.0,-100.00,WNW,303,3.0,7.0,34,-99.99,,,-99.99,,2013-02-16 05:00:00,
2013-02-15 22:32:00,25.0,1.0,-100.00,WNW,303,3.0,7.0,34,-99.99,,,-99.99,,2013-02-16 05:32:00,
2013-02-15 22:42:00,25.0,1.0,-100.00,WNW,303,3.0,7.0,34,-99.99,,,-99.99,,2013-02-16 05:42:00,
2013-02-15 22:52:00,25.0,1.0,-100.00,WNW,303,3.0,7.0,34,-99.99,,,-99.99,,2013-02-16 05:52:00,